This is the latest recevied weather packets stored in our database for station/object KI5PFS. If no packets are shown the sender has not sent any weather packets the latest 10 day(s).
| Time | Temp. | Humidity | Pressure | Rain* | Wind** | Luminosity | Snow |
|---|---|---|---|---|---|---|---|
| 1777614004 | 15° C | 75% | 1013.7 hPa | 0 mm | - | - | - |
| 1777613404 | 15° C | 74% | 1013.6 hPa | 0 mm | - | - | - |
| 1777612803 | 15° C | 74% | 1013.3 hPa | 0 mm | - | - | - |
| 1777612203 | 15° C | 73% | 1013.4 hPa | 0 mm | - | - | - |
| 1777611604 | 15° C | 75% | 1013.6 hPa | 0 mm | - | - | - |
| 1777611003 | 15° C | 75% | 1013.4 hPa | 0 mm | - | - | - |
| 1777610403 | 15° C | 74% | 1013.5 hPa | 0 mm | - | - | - |
| 1777609803 | 15° C | 74% | 1013.4 hPa | 0 mm | - | - | - |
| 1777609203 | 15° C | 74% | 1013.5 hPa | 0 mm | - | - | - |
| 1777608603 | 15° C | 74% | 1013.2 hPa | 0 mm | - | - | - |
| 1777608003 | 15° C | 77% | 1013.3 hPa | 0 mm | - | - | - |
| 1777607403 | 15° C | 78% | 1013.1 hPa | 0 mm | - | - | - |
| 1777606803 | 15° C | 78% | 1013.1 hPa | 0 mm | - | - | - |
| 1777606203 | 15° C | 79% | 1013.2 hPa | 0 mm | - | - | - |
| 1777605604 | 15° C | 77% | 1012.9 hPa | 0 mm | - | - | - |
| 1777605004 | 15° C | 76% | 1012.8 hPa | 0 mm | - | - | - |
| 1777604404 | 15° C | 77% | 1012.6 hPa | 0 mm | - | - | - |
| 1777603803 | 15° C | 78% | 1012.5 hPa | 0 mm | - | - | - |
| 1777603204 | 15° C | 77% | 1012 hPa | 0 mm | - | - | - |
| 1777602603 | 15° C | 77% | 1012.1 hPa | 0 mm | - | - | - |
| 1777602004 | 16.11° C | 75% | 1012.4 hPa | 0 mm | - | - | - |
| 1777601403 | 16.11° C | 73% | 1012.2 hPa | 0 mm | - | - | - |
| 1777600804 | 16.11° C | 73% | 1012 hPa | 0 mm | - | - | - |
| 1777600204 | 16.11° C | 72% | 1011.8 hPa | 0 mm | - | - | - |
| 1777599604 | 16.11° C | 71% | 1011.4 hPa | 0 mm | - | - | - |
* Rain latest hour (hover to see other rain measurements)
** Current wind speed in m/s (hover to see current wind gust speed)